sat.trackr.live / text

‹ back to catalog

STARLINK-3781

NORAD 52272 · 2022-041M

PAYLOAD ACTIVE UNKNOWN

§ Identity

Operator
Country
US
Launch date
2022-04-21
Launch site
AFETR
Launch vehicle
Mass (kg)
RCS (m²)

Purposes: comms

External: N2YO · Heavens-Above · Gunter

§ Orbital elements

Epoch: 2026-09-19T17:42:40.959648Z

Period
94.01 min
Inclination
53.1600°
Eccentricity
0.0001057
Mean motion
15.31706696 rev/d
Perigee alt
470.0 km
Apogee alt
471.4 km
Semi-major
6,848.9 km
B*
5.6654e-5
RAAN
304.4710°
Arg perigee
70.3868°
Mean anomaly
289.7247°
Rev number
24,384

§ Raw data

STARLINK-37811 52272U 22041M   26262.73797407  .00001394  00000+0  56654-4 0  99952 52272  53.1600 304.4710 0001057  70.3868 289.7247 15.31706696243843

JSON: /api/v1/satellites/52272 · /tle

For live sub-satellite position, see the globe view (requires WebGL).

§ Visibility from observer

Set your observer location to see the next 7 days of passes ≥ 10°. The values pass through the URL so the page stays shareable.

No JS? Fill the form by hand. The geolocation button needs JavaScript.